[[{"header":{"parameterUnit":"m.s-1","parameterCategory":1,"la1":30.2991,"la2":30.254,"lo1":-89.0895,"lo2":-89.0444,"dy":0.0017,"dx":0.0017,"nx":28,"ny":28,"refTime":"2026-02-26T03:00:00:Z","depth":0,"parameterNumber":2,"parameterNumberName":"U-component_of_WINDS"},"data":[0,0,0,0,0,0,0,0,0,0,0,0,0,0,0,0,0,0,0,0,0,0,0,0,0,0,0,0,0,0,0,0,0,0,0,0,0,0,0,0,0,0,0,0,0,0,0,0,0,0,0,0,0,0,0,0,0,0,0.2233,0.2232,0,0.2223,0.2223,0.2222,0.2267,0.2268,0.227,0.2271,0.226,0.2259,0.2257,0,0,0,0,0,0,0,0,0,0,0,0,0,0.2291,0.2289,0.2233,0.2232,0.2232,0.2223,0.2223,0.2222,0.2267,0.2268,0.227,0.2271,0.2261,0.2259,0.2257,0,0,0,0,0,0,0,0,0,0,0,0,0,0.2272,0.2289,0.2233,0.2253,0.2255,0.2223,0.2223,0.2222,0.2266,0.2268,0.227,0.2272,0.2261,0.2259,0.2257,0.2204,0,0,0.225,0.2249,0,0,0,0,0,0,0,0,0.2273,0.2269,0.225,0.2252,0.2254,0.2248,0.2239,0.2216,0.2266,0.2262,0.2271,0.2273,0.2254,0.2253,0.2247,0.2203,0.2203,0.225,0.2248,0.2247,0.2247,0,0,0,0,0,0,0,0.2274,0.227,0.2229,0.225,0.2252,0.2263,0.2263,0.2235,0.2247,0.2263,0.2266,0.2264,0.2256,0.2249,0.2247,0.2203,0.225,0.2248,0.2246,0.2245,0.2119,0.2117,0,0,0,0,0,0,0.2272,0.2271,0.2229,0.2228,0.2268,0.2261,0.226,0.2248,0.2248,0.225,0.2262,0.2266,0.2252,0.2249,0.2247,0.2188,0.2247,0.2245,0.2244,0.2121,0.2119,0.2116,0,0,0,0,0,0,0.2273,0.2268,0.2229,0.225,0.2246,0.2258,0.2244,0.2247,0.224,0.2248,0.225,0.2253,0.2253,0.225,0.2215,0.2188,0.2244,0.2242,0.2123,0.212,0.2118,0.2067,0,0,0,0,0,0,0.2275,0.2268,0.2248,0.225,0.2245,0.2197,0.2242,0.2245,0.2236,0.2241,0.224,0.2241,0.2254,0.2218,0.2213,0.2186,0.224,0.2126,0.2122,0.2119,0.2071,0.2063,0.2055,0,0,0,0,0,0.2277,0.2233,0.2247,0.2241,0.222,0.2196,0.2193,0.2209,0.2233,0.2214,0.2219,0.2241,0.2191,0.2214,0.2208,0.218,0.2128,0.2123,0.2119,0.2075,0.2064,0.2056,0,0,0,0,0,0,0.2227,0.2234,0.2249,0.2204,0.2199,0.2203,0.2179,0.2197,0.2185,0.219,0.221,0.221,0.2172,0.2172,0.2198,0.2131,0.2164,0.2158,0.2132,0.2122,0.2115,0.2116,0.2239,0,0,0,0,0,0.2211,0.219,0.2197,0.2157,0.2154,0.2167,0.2157,0.217,0.2165,0.2163,0.2166,0.2161,0.2145,0.2133,0.2118,0.2071,0.2073,0.2049,0.2041,0.2034,0.203,0.2008,0.1999,0.2102,0.2102,0.2102,0,0,0.2177,0.2178,0.2164,0.2147,0.2145,0.2125,0.2165,0.214,0.2126,0.216,0.2128,0.213,0.2126,0.2085,0.2068,0.2084,0.2002,0.2029,0.2023,0.2022,0.2003,0.1993,0.1984,0.2099,0.2099,0.21,0,0,0.2106,0.2103,0.2072,0.2069,0.2066,0.2075,0.2067,0.2069,0.2072,0.204,0.2066,0.2049,0.2019,0.2016,0.2011,0.1941,0.1962,0.1935,0.1894,0.1873,0.1865,0.1858,0.1836,0.1828,0.193,0.193,0.193,0,0.2064,0.2034,0.2053,0.2028,0.2021,0.2052,0.2021,0.2017,0.2008,0.2003,0.2022,0.1987,0.1986,0.1948,0.1931,0.1924,0.1918,0.1936,0.1865,0.1858,0.1852,0.1831,0.1822,0.1927,0.1927,0.1928,0.1928,0,0.1985,0.1964,0.1939,0.1932,0.1922,0.1893,0.1909,0.1896,0.1911,0.1918,0.1887,0.1887,0.1874,0.1865,0.1878,0.1829,0.184,0.1861,0.1895,0.1838,0.182,0.1811,0.1923,0.1924,0.1925,0.1925,0,0,0.1882,0.1887,0.1877,0.1876,0.1875,0.186,0.1834,0.1822,0.1813,0.1806,0.1786,0.1761,0.1782,0.1776,0.1789,0.1769,0.1718,0.1794,0.1794,0.1782,0.1668,0.1654,0.1644,0.1731,0.173,0.1729,0.1669,0,0.1814,0.1771,0.1788,0.1744,0.1727,0.1756,0.1734,0.1732,0.1738,0.1725,0.1732,0.1715,0.1742,0.1739,0.1721,0.1728,0.1696,0.1732,0.1715,0.1714,0.1718,0.1633,0.1618,0.1561,0.1661,0.166,0.1659,0,0.173,0.1722,0.1676,0.1682,0.1675,0.1655,0.1648,0.1633,0.1632,0.1638,0.1633,0.1651,0.1627,0.1659,0.1628,0.1653,0.1647,0.1649,0.1647,0.1648,0.1685,0.1635,0.1543,0.1536,0.1647,0.1648,0.1649,0,0.1663,0.164,0.1611,0.1609,0.1613,0.1599,0.16,0.1601,0.1594,0.1587,0.1583,0.1572,0.1567,0.1559,0.1575,0.1596,0.1543,0.1576,0.1549,0.1549,0.1538,0.1538,0.1447,0.1529,0.1529,0.1529,0.153,0,0.1587,0.1559,0.1582,0.1564,0.1534,0.1554,0.1524,0.1528,0.1529,0.1513,0.1537,0.1522,0.1542,0.153,0.1541,0.1516,0.1512,0.1518,0.1522,0.1517,0.1517,0.1515,0.152,0.1527,0.1528,0.1528,0.1528,0,0.1508,0.1522,0.1493,0.15,0.1502,0.1479,0.1486,0.1471,0.148,0.146,0.1456,0.147,0.1456,0.1471,0.1457,0.1465,0.1432,0.144,0.1432,0.1436,0.1409,0.1413,0.1315,0.1305,0.1391,0.139,0.139,0,0.146,0.1439,0.1446,0.1438,0.1438,0.1424,0.1418,0.1436,0.1429,0.1428,0.1413,0.1401,0.1394,0.1371,0.138,0.1371,0.138,0.1347,0.1379,0.1376,0.1383,0.1386,0.1385,0.1341,0.134,0.1339,0.1338,0,0.1374,0.1383,0.1373,0.1366,0.1358,0.1353,0.135,0.1342,0.1362,0.1352,0.134,0.1334,0.1322,0.1311,0.1305,0.1307,0.1327,0.1328,0.1322,0.1318,0.1316,0.132,0.1418,0.1331,0.1331,0.1332,0.1332,0.1333,0.1311,0.1296,0.1299,0.1288,0.1288,0.1285,0.1272,0.128,0.127,0.1262,0.1274,0.1258,0.126,0.1254,0.1254,0.1243,0.1257,0.1247,0.1246,0.1244,0.1241,0.1316,0.1241,0.1242,0.1242,0.1242,0.1242,0,0.1229,0.1233,0.1223,0.1219,0.1211,0.1231,0.1229,0.1221,0.1208,0.1208,0.12,0.1187,0.1177,0.1186,0.1178,0.1168,0.1177,0.1166,0.1168,0.1169,0.1227,0.1235,0.1159,0.1159,0.1159,0.1159,0.1159,0.1159,0.1186,0.1162,0.1171,0.1148,0.1152,0.1138,0.1136,0.1134,0.1135,0.112,0.1112,0.1118,0.1122,0.1116,0.1109,0.1111,0.1109,0.1095,0.1101,0.1156,0.1164,0.1172,0.1179,0.1093,0.1093,0.1044,0.1043,0.1043]},{"header":{"parameterUnit":"m.s-1","parameterCategory":1,"la1":30.2991,"la2":30.254,"lo1":-89.0895,"lo2":-89.0444,"dy":0.0017,"dx":0.0017,"nx":28,"ny":28,"refTime":"2026-02-26T03:00:00:Z","depth":0,"parameterNumber":3,"parameterNumberName":"V-component_of_WINDS"},"data":[0,0,0,0,0,0,0,0,0,0,0,0,0,0,0,0,0,0,0,0,0,0,0,0,0,0,0,0,0,0,0,0,0,0,0,0,0,0,0,0,0,0,0,0,0,0,0,0,0,0,0,0,0,0,0,0,0,0,4.7917,4.7917,0,4.7933,4.7933,4.7933,4.7988,4.7989,4.799,4.7992,4.8004,4.8003,4.8002,0,0,0,0,0,0,0,0,0,0,0,0,0,4.7931,4.7931,4.7917,4.7917,4.7917,4.7933,4.7933,4.7934,4.7988,4.7989,4.7991,4.7992,4.8004,4.8003,4.8002,0,0,0,0,0,0,0,0,0,0,0,0,0,4.7934,4.7931,4.7917,4.7946,4.7949,4.7933,4.7933,4.7934,4.7987,4.7989,4.7991,4.7993,4.8004,4.8003,4.8002,4.7957,0,0,4.7998,4.7997,0,0,0,0,0,0,0,0,4.7934,4.7933,4.7942,4.7944,4.7948,4.7961,4.7943,4.7941,4.7987,4.7973,4.7992,4.7994,4.7987,4.7988,4.7987,4.7957,4.7958,4.7998,4.7997,4.7997,4.7996,0,0,0,0,0,0,0,4.7933,4.7933,4.7923,4.7942,4.7945,4.7958,4.7961,4.7943,4.7969,4.7974,4.7978,4.798,4.7989,4.7988,4.7987,4.7958,4.7998,4.7997,4.7996,4.7995,4.7897,4.7896,0,0,0,0,0,0,4.793,4.7932,4.7923,4.7924,4.7945,4.7957,4.7959,4.7954,4.797,4.7974,4.7978,4.7982,4.7989,4.7989,4.7988,4.7939,4.7997,4.7995,4.7995,4.7899,4.7897,4.7895,0,0,0,0,0,0,4.793,4.7928,4.7922,4.7929,4.793,4.7954,4.7948,4.7954,4.7952,4.7973,4.7977,4.7972,4.799,4.799,4.7966,4.794,4.7995,4.7994,4.7901,4.7899,4.7896,4.784,0,0,0,0,0,0,4.793,4.7928,4.7911,4.7929,4.7929,4.79,4.7947,4.7953,4.795,4.7956,4.7968,4.7972,4.7992,4.7967,4.7964,4.794,4.7993,4.7904,4.79,4.7897,4.7844,4.7836,4.7828,0,0,0,0,0,4.793,4.7893,4.791,4.7908,4.7909,4.7898,4.7898,4.7923,4.7948,4.7932,4.7946,4.7971,4.7944,4.7964,4.7961,4.7936,4.7905,4.7901,4.7897,4.7848,4.7837,4.7829,0,0,0,0,0,0,4.7869,4.7895,4.7915,4.7882,4.7888,4.7907,4.7887,4.7911,4.7908,4.7913,4.7943,4.7946,4.7918,4.7924,4.7947,4.7896,4.7929,4.7924,4.7892,4.7883,4.7875,4.7874,4.7992,0,0,0,0,0,4.7852,4.7842,4.7865,4.7834,4.7837,4.7861,4.7857,4.7877,4.7883,4.7885,4.7897,4.7902,4.7895,4.7889,4.7883,4.7845,4.785,4.7827,4.7819,4.7812,4.7808,4.7792,4.7783,4.7881,4.7881,4.7881,0,0,4.7816,4.783,4.7821,4.7823,4.7829,4.7819,4.7863,4.7848,4.7841,4.7883,4.7862,4.7871,4.7878,4.7848,4.7835,4.7853,4.7782,4.7807,4.7802,4.7801,4.7787,4.7778,4.777,4.7878,4.7879,4.7879,0,0,4.7746,4.7754,4.7731,4.7738,4.7749,4.7767,4.7761,4.7778,4.7786,4.7766,4.7799,4.779,4.7776,4.7781,4.7781,4.7718,4.7742,4.7714,4.7673,4.7658,4.765,4.7643,4.7623,4.7615,4.771,4.771,4.771,0,4.77,4.7686,4.7716,4.7701,4.7702,4.7742,4.772,4.7724,4.7731,4.7731,4.7751,4.7737,4.7744,4.7718,4.7703,4.7701,4.7697,4.7713,4.7649,4.7642,4.7637,4.7618,4.761,4.7707,4.7707,4.7707,4.7708,0,4.763,4.762,4.76,4.761,4.7608,4.7589,4.7616,4.7611,4.7631,4.7647,4.7628,4.7638,4.7637,4.7632,4.765,4.7609,4.762,4.7643,4.7678,4.7624,4.7607,4.7599,4.7702,4.7703,4.7704,4.7705,0,0,4.752,4.755,4.7542,4.7549,4.7565,4.7558,4.7541,4.7543,4.7539,4.7543,4.7531,4.752,4.7544,4.7545,4.7564,4.755,4.7503,4.7576,4.7577,4.7564,4.7462,4.7445,4.7436,4.7519,4.7518,4.7517,4.7462,0,4.7456,4.7432,4.746,4.7429,4.7422,4.7462,4.7448,4.7457,4.7472,4.7467,4.7483,4.7476,4.7506,4.7507,4.7495,4.7511,4.7483,4.7515,4.7509,4.7508,4.7508,4.7427,4.7408,4.7356,4.7455,4.7454,4.7453,0,4.7377,4.7382,4.7351,4.7374,4.7372,4.7359,4.7364,4.7359,4.7371,4.7383,4.7386,4.7411,4.7397,4.743,4.7413,4.7434,4.7434,4.7441,4.744,4.7441,4.7478,4.7428,4.734,4.7333,4.7442,4.7443,4.7444,0,4.7303,4.7301,4.7284,4.7288,4.7313,4.7304,4.7313,4.7327,4.7327,4.7331,4.7332,4.7334,4.7335,4.7336,4.7361,4.7382,4.7342,4.7376,4.7352,4.7351,4.7342,4.7342,4.7254,4.7338,4.7338,4.7339,4.7339,0,4.723,4.721,4.7252,4.7241,4.7222,4.7254,4.7233,4.7247,4.726,4.7253,4.7286,4.7279,4.7312,4.7308,4.7327,4.7312,4.7311,4.7321,4.7327,4.7319,4.7318,4.732,4.7325,4.7337,4.7337,4.7337,4.7338,0,4.7144,4.7171,4.7155,4.7182,4.7188,4.7172,4.7195,4.7186,4.7204,4.7196,4.7195,4.7223,4.7221,4.7247,4.7248,4.7262,4.7238,4.7249,4.7235,4.7239,4.7214,4.7217,4.7126,4.7116,4.7204,4.7203,4.7202,0,4.7096,4.7082,4.7108,4.7108,4.7116,4.7113,4.7115,4.7147,4.7148,4.7162,4.7152,4.7154,4.7157,4.7151,4.7172,4.7174,4.7187,4.7155,4.7187,4.7181,4.7189,4.719,4.7191,4.7148,4.7147,4.7146,4.7145,0,4.7008,4.7024,4.7025,4.7033,4.7035,4.7041,4.705,4.7047,4.7083,4.7081,4.7081,4.7084,4.7088,4.7089,4.7096,4.7106,4.7132,4.7135,4.713,4.7123,4.7116,4.7122,4.7218,4.7137,4.7138,4.7138,4.7139,4.7139,4.6942,4.6933,4.6952,4.6953,4.6964,4.6973,4.6968,4.6987,4.6988,4.6995,4.7014,4.7011,4.7026,4.7039,4.7047,4.7045,4.7061,4.7053,4.7051,4.7049,4.7046,4.7115,4.7046,4.7046,4.7047,4.7047,4.7047,0,4.6858,4.6873,4.6875,4.6888,4.689,4.6916,4.6928,4.6928,4.6926,4.6939,4.6942,4.6943,4.6946,4.6968,4.6973,4.6968,4.698,4.6968,4.697,4.6972,4.703,4.7035,4.6959,4.6959,4.6959,4.6959,4.6959,4.6959,4.6815,4.6804,4.6822,4.6816,4.6831,4.683,4.6836,4.6844,4.6855,4.6856,4.6859,4.6874,4.6891,4.6898,4.6902,4.6909,4.691,4.6895,4.6905,4.6959,4.6968,4.6976,4.6981,4.6894,4.6894,4.6848,4.6847,4.6847]}]]